Location: Drocourt
(49.0571°N, 1.7669°E)
Time: 19:43:54
(UTC+00:00)

S-56A Canister/Altair - Pass Details

Date: 14 April 2024
Orbit: 638 x 2488 km, 38.9° (Epoch: 20 May)

Event Time Altitude Azimuth Distance (km) Brightness Sun altitude
Rises 22:13:19 0° 267° (W) 4,417 11.7 -27.2°
Reaches altitude 10° 22:16:06 10° 261° (W) 3,673 11.2 -27.4°
Maximum altitude 22:25:14 43° 194° (SSW) 2,541 9.7 -28.0°
Enters shadow 22:26:31 42° 180° (S) 2,640 9.7 -28.1°
Drops below altitude 10° 22:37:43 10° 130° (SE) 4,967 - -28.8°
Sets 22:42:09 0° 125° (SE) 6,093 - -29.1°
